Location: Darlington Observatory
(36.4817°N, 105.8156°W)
Time: 10:07:19
(UTC-06:00)

NOSS 3-3 (A) - Visible Passes

Search period start: 28 May 2015 00:00
Search period end: 07 June 2015 00:00
Orbit: 955 x 1258 km, 63.4° (Epoch: 30 April)

Date Brightness Start Highest point End Pass type
(mag) Time Alt. Az. Time Alt. Az. Time Alt. Az.
29 May 5.0 05:09:58 10° S 05:15:52 45° ESE 05:22:07 10° NE visible
30 May 5.7 04:26:28 10° SSE 04:31:28 26° ESE 04:36:49 10° NE visible
31 May 6.3 03:44:05 10° SE 03:47:08 14° ESE 03:50:37 10° ENE visible
01 Jun 4.4 04:46:31 10° SSW 04:52:41 63° ESE 04:59:14 10° NE visible
02 Jun 5.1 04:03:04 12° S 04:08:13 37° ESE 04:14:11 10° NE visible
03 Jun 5.8 03:20:08 12° SSE 03:23:50 21° ESE 03:28:39 10° ENE visible
03 Jun 4.3 05:08:01 10° SW 05:14:14 60° NW 05:20:51 10° NNE visible
04 Jun 6.3 02:38:09 10° ESE 02:39:32 11° ESE 02:41:25 10° E visible
04 Jun 4.1 04:24:35 17° SSW 04:29:32 86° ESE 04:36:14 10° NNE visible
05 Jun 4.6 03:41:32 25° S 03:45:00 51° ESE 03:51:23 10° NE visible
06 Jun 5.3 02:58:26 24° SE 03:00:34 30° ESE 03:06:12 10° NE visible
06 Jun 4.7 04:45:53 13° WSW 04:51:16 45° NW 04:57:39 10° NNE visible
